Location: Asheville, NC
(35.6000°N, 82.5500°W)
Time: 17:32:14

HO-68 - Pass Details

Date: 16 March 2018
Orbit: 1193 x 1204 km, 100.1° (Epoch: 20 March)

Event Time Altitude Azimuth Distance (km) Brightness Sun altitude
Rises 07:07:16 0° 31° (NNE) 4,114 ? -7.4°
Reaches altitude 10° 07:10:42 10° 47° (NE) 3,146 ? -6.7°
Maximum altitude 07:15:54 21° 94° (E) 2,406 ? -5.6°
Drops below altitude 10° 07:21:04 10° 141° (SE) 3,134 ? -4.6°
Sets 07:24:27 0° 156° (SSE) 4,093 ? -3.9°
